Find Kosmos-1526

NORAD ID: 14615 Int'l Des: 1984-001 Owner: GUKOS Country: SU operational
LEOCIRCULAR

Live-Position

3D-Globus wird geladen...

Über Kosmos-1526

Beschreibung wird geladen...

Nächste Überflüge

Passes for default location (London). Set your location on the main map for personalized predictions.

Höhenverlauf

Loading altitude history...

Zweizeiliger Elementsatz

1 14615U 84001E 26105.52046661 -.00000015 00000-0 80727-5 0 9990
2 14615 74.0058 276.4500 0012292 201.3536 215.7141 12.53055007933737
Epoch: 15. Apr. 2026 • Age: 12 hours

Aktueller Status

Höhe 1464.0 km
Geschwindigkeit 7.14 km/s
Subsatellitenpunkt 68.05°N, 157.1°W
Startdatum 5. Jan. 1984
Alter 42.2 years
Typ other

Technische Details

Klassifizierung Payload
Masse 60.00 kg
Trockenmasse 60.00 kg
Gesamtmasse 60.00 kg
Länge 0.80 m
Durchmesser 0.80 m
Spannweite 0.80 m
Form Poly
Hersteller NPOPM
Bus-Typ Strela-1 11F625
Phasenstatus In Orbit
Besitzer/Staat GUKOS/SU

Most Searched